QPF
0.00 0.08 0.02 0.05 0.04 0.03 0.04 0.07 0.02 0.01 0.01 0.00 0.00 0.00 0.00 0.00 0.00 0.00 0.00 0.00 0.00 0.00 0.00 0.00 0.00 0.00 0.00 0.00 0.00 0.00 0.00 0.00 0.00 0.00 0.00 0.00 0.00 0.00 0.00 0.00 0.00 0.01 0.00 0.00 0.00 0.00 0.00 0.00 0.02
0.03 0.03 0.01 0.03 0.03 0.04 0.02 0.02 0.03 0.00 0.00 0.00 0.00 0.00 0.00 0.00 0.00 0.00 0.01 0.01 0.00 0.00 0.00 0.00 0.00 0.00 0.00 0.00 0.00 0.00 0.00 0.00 0.00 0.00 0.00 0.00 0.00 0.00 0.00 0.00 0.00 0.00 0.00 0.00 0.00 0.00 0.00 0.00 0.00
0.02 0.00 0.01 0.02 0.03 0.05 0.02 0.03 0.01 0.00 0.00 0.00 0.00 0.00 0.00 0.00 0.00 0.00 0.00 0.00 0.00 0.00 0.00 0.00 0.00 0.00 0.00 0.00 0.00 0.00 0.00 0.00 0.00 0.00 0.00 0.00 0.00 0.00 0.00 0.00 0.00 0.00 0.00 0.00 0.00 0.00 0.00 0.00 0.00
0.03 0.01 0.01 0.05 0.05 0.05 0.03 0.01 0.00 0.00 0.00 0.00 0.00 0.00 0.00 0.00 0.00 0.00 0.00 0.00 0.00 0.00 0.00 0.00 0.00 0.00 0.00 0.00 0.00 0.00 0.00 0.00 0.00 0.00 0.00 0.00 0.00 0.00 0.00 0.00 0.00 0.00 0.00 0.00 0.00 0.00 0.00 0.00 0.11
0.00 0.00 0.01 0.03 0.04 0.02 0.05 0.01 0.01 0.00 0.00 0.00 0.00 0.00 0.00 0.00 0.00 0.00 0.00 0.00 0.00 0.00 0.00 0.00 0.00 0.00 0.00 0.00 0.00 0.00 0.00 0.00 0.00 0.00 0.00 0.00 0.00 0.00 0.00 0.00 0.00 0.00 0.00 0.00 0.00 0.00 0.00 0.00 0.09
0.00 0.00 0.02 0.07 0.20 0.04 0.02 0.00 0.00 0.01 0.02 0.03 0.00 0.00 0.00 0.00 0.00 0.00 0.00 0.00 0.00 0.00 0.00 0.00 0.00 0.00 0.00 0.00 0.00 0.00 0.00 0.00 0.00 0.00 0.00 0.00 0.00 0.00 0.00 0.00 0.00 0.00 0.00 0.00 0.00 0.00 0.00 0.03 0.12
0.03 0.00 0.01 0.08 0.19 0.14 0.04 0.01 0.01 0.01 0.04 0.02 0.00 0.00 0.00 0.00 0.00 0.00 0.00 0.00 0.00 0.00 0.00 0.00 0.00 0.00 0.00 0.00 0.00 0.00 0.00 0.00 0.00 0.01 0.02 0.01 0.00 0.00 0.00 0.00 0.00 0.00 0.00 0.02 0.03 0.03 0.01 0.03 0.07
0.02 0.00 0.00 0.02 0.10 0.08 0.13 0.02 0.05 0.00 0.00 0.00 0.00 0.00 0.00 0.00 0.00 0.00 0.00 0.00 0.00 0.00 0.00 0.00 0.00 0.00 0.00 0.00 0.00 0.00 0.00 0.00 0.00 0.01 0.05 0.05 0.01 0.01 0.00 0.00 0.02 0.04 0.03 0.05 0.02 0.00 0.00 0.01 0.00
0.02 0.00 0.00 0.00 0.01 0.05 0.15 0.07 0.02 0.00 0.00 0.00 0.00 0.00 0.00 0.00 0.00 0.00 0.00 0.00 0.00 0.00 0.00 0.00 0.00 0.00 0.00 0.00 0.00 0.00 0.01 0.00 0.02 0.07 0.01 0.00 0.00 0.00 0.04 0.05 0.02 0.03 0.00 0.00 0.00 0.00 0.00 0.00 0.00
0.01 0.00 0.00 0.00 0.01 0.01 0.01 0.02 0.00 0.00 0.00 0.01 0.02 0.00 0.00 0.00 0.00 0.00 0.00 0.00 0.00 0.00 0.00 0.00 0.00 0.00 0.00 0.00 0.00 0.01 0.00 0.01 0.06 0.09 0.04 0.00 0.00 0.01 0.03 0.02 0.02 0.02 0.03 0.01 0.02 0.03 0.00 0.01 0.00
0.00 0.00 0.01 0.00 0.00 0.01 0.01 0.01 0.00 0.00 0.00 0.00 0.00 0.00 0.00 0.00 0.00 0.00 0.00 0.00 0.00 0.00 0.00 0.00 0.00 0.00 0.00 0.00 0.04 0.05 0.01 0.00 0.00 0.01 0.02 0.03 0.04 0.01 0.01 0.01 0.01 0.01 0.01 0.00 0.02 0.13 0.02 0.02 0.00
0.00 0.00 0.01 0.00 0.00 0.00 0.00 0.01 0.00 0.00 0.00 0.00 0.00 0.00 0.00 0.00 0.00 0.00 0.00 0.00 0.00 0.00 0.00 0.00 0.00 0.00 0.00 0.00 0.02 0.02 0.00 0.02 0.02 0.00 0.03 0.09 0.05 0.04 0.00 0.02 0.01 0.01 0.00 0.00 0.00 0.04 0.05 0.09 0.04
0.00 0.00 0.01 0.00 0.00 0.00 0.00 0.00 0.00 0.00 0.00 0.00 0.00 0.00 0.00 0.00 0.00 0.00 0.00 0.00 0.00 0.00 0.00 0.00 0.00 0.00 0.00 0.00 0.00 0.00 0.01 0.00 0.00 0.01 0.02 0.01 0.00 0.02 0.00 0.00 0.01 0.00 0.00 0.00 0.02 0.04 0.02 0.02 0.01
0.00 0.00 0.01 0.00 0.00 0.00 0.00 0.00 0.00 0.00 0.00 0.00 0.00 0.00 0.00 0.00 0.00 0.00 0.00 0.00 0.00 0.00 0.00 0.00 0.00 0.00 0.00 0.00 0.00 0.00 0.00 0.00 0.00 0.00 0.00 0.00 0.00 0.00 0.00 0.01 0.02 0.03 0.00 0.00 0.04 0.02 0.01 0.01 0.01
0.00 0.00 0.00 0.01 0.00 0.00 0.00 0.00 0.00 0.00 0.00 0.00 0.00 0.00 0.00 0.00 0.00 0.00 0.00 0.00 0.00 0.00 0.00 0.00 0.00 0.00 0.00 0.00 0.00 0.00 0.00 0.00 0.00 0.00 0.00 0.00 0.00 0.00 0.00 0.00 0.05 0.02 0.00 0.00 0.00 0.00 0.00 0.00 0.00
0.00 0.00 0.00 0.03 0.01 0.00 0.00 0.00 0.00 0.00 0.00 0.00 0.00 0.00 0.00 0.00 0.00 0.00 0.00 0.00 0.00 0.00 0.00 0.00 0.00 0.00 0.00 0.00 0.00 0.00 0.00 0.00 0.00 0.00 0.00 0.00 0.00 0.00 0.00 0.00 0.00 0.00 0.00 0.00 0.00 0.00 0.00 0.00 0.00
0.00 0.00 0.00 0.02 0.08 0.01 0.04 0.01 0.00 0.00 0.00 0.00 0.00 0.00 0.00 0.00 0.00 0.00 0.00 0.00 0.00 0.00 0.00 0.00 0.00 0.00 0.00 0.00 0.00 0.01 0.00 0.00 0.00 0.00 0.00 0.00 0.00 0.00 0.00 0.00 0.00 0.00 0.00 0.00 0.00 0.00 0.00 0.00 0.00
0.00 0.00 0.00 0.01 0.01 0.01 0.01 0.01 0.01 0.00 0.00 0.00 0.00 0.00 0.00 0.00 0.00 0.00 0.00 0.00 0.00 0.00 0.00 0.00 0.00 0.00 0.00 0.00 0.00 0.00 0.00 0.00 0.00 0.00 0.00 0.00 0.00 0.00 0.00 0.00 0.00 0.00 0.00 0.00 0.00 0.00 0.00 0.00 0.00
0.00 0.00 0.00 0.01 0.01 0.00 0.00 0.00 0.00 0.00 0.00 0.00 0.00 0.00 0.00 0.00 0.00 0.00 0.00 0.00 0.00 0.00 0.00 0.00 0.00 0.00 0.00 0.00 0.00 0.00 0.00 0.00 0.00 0.00 0.00 0.00 0.00 0.00 0.00 0.00 0.00 0.00 0.00 0.00 0.00 0.00 0.00 0.00 0.00
0.00 0.00 0.00 0.00 0.00 0.01 0.01 0.00 0.00 0.01 0.00 0.00 0.00 0.00 0.00 0.00 0.00 0.00 0.00 0.00 0.00 0.00 0.00 0.00 0.00 0.00 0.00 0.00 0.00 0.00 0.00 0.00 0.00 0.00 0.00 0.00 0.00 0.00 0.00 0.00 0.00 0.00 0.00 0.00 0.00 0.00 0.00 0.00 0.00
0.00 0.00 0.00 0.00 0.00 0.00 0.02 0.00 0.00 0.02 0.01 0.00 0.00 0.00 0.00 0.00 0.00 0.00 0.00 0.00 0.00 0.00 0.00 0.00 0.00 0.00 0.00 0.00 0.00 0.00 0.00 0.00 0.00 0.00 0.00 0.00 0.00 0.00 0.00 0.00 0.00 0.00 0.00 0.00 0.00 0.00 0.00 0.00 0.00
0.00 0.00 0.00 0.00 0.00 0.00 0.00 0.00 0.00 0.01 0.00 0.00 0.00 0.00 0.00 0.00 0.00 0.00 0.00 0.00 0.00 0.00 0.00 0.00 0.00 0.00 0.00 0.00 0.00 0.00 0.00 0.00 0.00 0.00 0.00 0.00 0.00 0.00 0.00 0.00 0.00 0.00 0.00 0.00 0.00 0.00 0.00 0.00 0.00
0.00 0.00 0.00 0.00 0.00 0.00 0.00 0.00 0.00 0.00 0.00 0.00 0.00 0.00 0.00 0.00 0.00 0.00 0.00 0.00 0.00 0.00 0.00 0.00 0.00 0.00 0.00 0.00 0.00 0.00 0.00 0.00 0.00 0.00 0.00 0.00 0.00 0.00 0.00 0.00 0.00 0.00 0.00 0.00 0.00 0.00 0.00 0.00 0.00
0.00 0.00 0.00 0.00 0.00 0.00 0.00 0.00 0.00 0.00 0.00 0.00 0.00 0.01 0.00 0.00 0.00 0.00 0.00 0.00 0.00 0.00 0.00 0.00 0.00 0.00 0.00 0.00 0.00 0.00 0.00 0.00 0.00 0.00 0.00 0.00 0.00 0.00 0.00 0.00 0.00 0.00 0.00 0.00 0.00 0.00 0.00 0.00 0.00
0.00 0.00 0.00 0.00 0.00 0.00 0.00 0.00 0.00 0.00 0.00 0.00 0.00 0.00 0.00 0.00 0.00 0.00 0.00 0.00 0.00 0.00 0.00 0.00 0.00 0.00 0.00 0.00 0.00 0.00 0.00 0.00 0.00 0.00 0.00 0.00 0.00 0.00 0.00 0.00 0.00 0.00 0.00 0.00 0.00 0.00 0.00 0.00 0.00
0.00 0.00 0.00 0.00 0.00 0.00 0.00 0.00 0.00 0.00 0.00 0.00 0.00 0.00 0.00 0.00 0.00 0.00 0.00 0.00 0.00 0.00 0.00 0.00 0.00 0.00 0.00 0.00 0.00 0.00 0.00 0.00 0.00 0.00 0.00 0.00 0.00 0.00 0.00 0.00 0.00 0.00 0.00 0.00 0.00 0.00 0.00 0.00 0.00
0.00 0.00 0.00 0.00 0.00 0.00 0.00 0.00 0.00 0.00 0.00 0.00 0.00 0.00 0.00 0.00 0.00 0.00 0.00 0.00 0.00 0.00 0.00 0.00 0.00 0.00 0.00 0.00 0.00 0.00 0.00 0.00 0.00 0.00 0.00 0.00 0.00 0.00 0.00 0.00 0.00 0.00 0.00 0.00 0.00 0.00 0.00 0.00 0.00
0.00 0.00 0.00 0.00 0.00 0.00 0.00 0.00 0.00 0.00 0.00 0.00 0.00 0.00 0.00 0.00 0.00 0.00 0.00 0.00 0.00 0.00 0.00 0.00 0.00 0.00 0.00 0.00 0.00 0.00 0.00 0.00 0.00 0.00 0.00 0.00 0.00 0.00 0.00 0.00 0.00 0.00 0.00 0.00 0.00 0.00 0.00 0.00 0.00
0.00 0.00 0.00 0.00 0.00 0.00 0.00 0.00 0.00 0.00 0.00 0.00 0.00 0.00 0.00 0.00 0.00 0.00 0.00 0.00 0.00 0.00 0.00 0.00 0.00 0.00 0.00 0.00 0.00 0.00 0.00 0.00 0.00 0.00 0.00 0.00 0.00 0.00 0.00 0.00 0.00 0.00 0.00 0.00 0.00 0.00 0.00 0.00 0.00
0.00 0.00 0.00 0.00 0.00 0.00 0.00 0.00 0.00 0.00 0.00 0.00 0.00 0.00 0.00 0.00 0.00 0.00 0.00 0.00 0.00 0.00 0.00 0.00 0.00 0.00 0.00 0.00 0.00 0.00 0.00 0.00 0.00 0.00 0.00 0.00 0.00 0.00 0.00 0.00 0.00 0.00 0.00 0.00 0.00 0.00 0.00 0.00 0.00
MSLP
1010.46 1010.62 1010.90 1011.33 1011.93 1011.30 1010.97 1011.02 1010.70 1010.69 1010.54 1010.34 1010.20 1010.77 1011.95 1012.47 1012.70 1013.88 1013.73 1014.06 1014.21 1014.42 1014.39 1014.48 1014.61 1014.66 1014.77 1014.94 1015.08 1015.06 1015.12 1015.22 1015.36 1015.52 1015.60 1015.67 1015.75 1015.82 1015.94 1016.10 1016.15 1016.10 1015.99 1015.97 1016.03 1016.14 1016.20 1016.30 1016.45
1010.22 1010.44 1011.05 1011.67 1011.90 1011.12 1011.16 1010.73 1010.60 1010.20 1010.37 1010.30 1010.50 1011.03 1011.75 1012.84 1012.76 1013.54 1014.08 1014.20 1014.10 1014.38 1014.62 1014.74 1014.81 1014.92 1015.00 1015.10 1015.14 1015.20 1015.28 1015.40 1015.60 1015.78 1015.91 1015.96 1015.98 1016.00 1016.11 1016.29 1016.36 1016.25 1016.12 1016.02 1016.09 1016.22 1016.24 1016.35 1016.42
1009.90 1010.09 1011.17 1011.84 1011.91 1010.84 1010.57 1010.33 1010.10 1009.89 1010.11 1009.90 1010.69 1011.16 1012.04 1013.12 1013.34 1013.65 1013.85 1014.24 1014.19 1014.58 1014.83 1014.96 1015.02 1015.06 1015.07 1015.23 1015.36 1015.38 1015.56 1015.77 1015.96 1016.07 1016.08 1016.02 1016.04 1016.18 1016.20 1016.26 1016.39 1016.45 1016.34 1016.22 1016.24 1016.40 1016.34 1016.44 1016.58
1009.69 1010.51 1012.02 1012.02 1011.18 1010.11 1009.72 1009.75 1009.54 1009.66 1009.68 1010.24 1010.87 1012.00 1012.56 1013.11 1013.16 1013.44 1014.09 1014.10 1014.46 1014.77 1014.95 1015.08 1015.14 1015.20 1015.24 1015.44 1015.50 1015.71 1015.76 1015.89 1015.94 1015.87 1015.85 1016.15 1016.36 1016.46 1016.34 1016.28 1016.40 1016.44 1016.46 1016.48 1016.52 1016.55 1016.53 1016.57 1017.00
1010.14 1011.15 1012.70 1011.84 1010.86 1009.94 1009.35 1009.00 1009.15 1009.39 1009.55 1010.40 1011.22 1012.57 1012.91 1013.17 1013.14 1013.69 1014.14 1014.28 1014.55 1015.02 1015.13 1015.18 1015.26 1015.36 1015.52 1015.58 1015.76 1015.90 1015.89 1015.88 1015.82 1015.90 1016.21 1016.28 1016.27 1016.49 1016.61 1016.53 1016.44 1016.42 1016.56 1016.64 1016.75 1016.81 1016.60 1016.59 1017.11
1011.16 1012.48 1012.90 1012.64 1010.80 1009.63 1009.45 1008.84 1008.91 1009.19 1009.45 1010.70 1011.70 1012.65 1013.52 1013.49 1013.50 1013.76 1014.02 1014.42 1014.47 1015.10 1015.30 1015.38 1015.41 1015.56 1015.74 1015.83 1015.95 1015.92 1015.97 1015.88 1015.88 1015.85 1016.01 1016.13 1016.19 1016.14 1016.28 1016.43 1016.50 1016.56 1016.70 1016.75 1016.66 1016.55 1016.43 1016.91 1016.78
1010.65 1012.40 1012.34 1012.19 1011.74 1009.94 1009.42 1009.08 1008.98 1009.00 1009.74 1010.72 1011.26 1012.80 1013.69 1013.68 1013.65 1013.84 1014.13 1014.64 1014.97 1015.09 1015.32 1015.52 1015.66 1015.78 1015.96 1015.96 1015.97 1015.92 1015.91 1015.90 1015.93 1015.85 1015.87 1016.07 1016.05 1015.95 1015.94 1016.32 1016.34 1016.39 1016.58 1016.57 1016.32 1016.07 1016.41 1016.56 1016.46
1010.12 1011.67 1010.52 1010.81 1011.36 1010.99 1009.90 1009.32 1009.12 1009.10 1009.77 1010.49 1011.15 1012.16 1013.20 1013.28 1013.34 1013.77 1014.32 1014.85 1015.36 1015.50 1015.48 1015.73 1015.96 1016.08 1016.07 1016.04 1016.06 1016.03 1016.06 1016.13 1016.14 1016.01 1015.87 1015.78 1015.84 1015.78 1016.00 1016.14 1016.10 1016.10 1016.29 1016.21 1016.05 1015.98 1016.20 1016.38 1015.95
1009.50 1010.04 1009.42 1008.76 1009.42 1010.52 1009.54 1009.24 1009.08 1008.86 1009.63 1010.24 1010.78 1011.18 1012.09 1012.83 1013.20 1013.85 1014.62 1015.30 1015.62 1015.92 1015.94 1015.91 1016.11 1016.21 1016.14 1016.14 1016.14 1016.10 1016.16 1016.25 1015.92 1015.84 1015.88 1015.86 1015.82 1016.02 1016.55 1016.29 1016.02 1015.95 1015.95 1015.79 1015.87 1015.99 1015.76 1016.58 1016.70
1008.70 1008.43 1006.81 1006.88 1007.46 1008.33 1008.38 1008.37 1008.28 1008.81 1009.62 1010.47 1010.74 1011.46 1012.55 1013.11 1013.52 1014.03 1014.60 1015.17 1015.65 1016.06 1016.01 1016.00 1016.07 1016.13 1016.09 1016.06 1016.25 1016.45 1016.49 1016.30 1016.10 1016.01 1015.98 1016.17 1016.16 1016.29 1016.35 1016.14 1015.92 1015.78 1015.76 1015.61 1015.84 1016.06 1016.03 1016.72 1017.24
1006.35 1006.20 1005.17 1005.19 1005.77 1006.77 1007.23 1007.39 1007.53 1008.23 1009.12 1009.21 1010.18 1011.50 1012.65 1013.15 1013.60 1014.06 1014.51 1014.75 1015.19 1015.62 1015.72 1015.96 1015.93 1015.92 1016.09 1016.05 1016.41 1016.70 1016.76 1016.58 1016.32 1016.27 1016.08 1016.07 1016.12 1016.46 1016.49 1016.28 1016.06 1015.98 1015.66 1015.65 1015.96 1016.54 1015.87 1016.40 1016.46
1004.63 1004.45 1004.80 1004.48 1004.97 1005.50 1005.96 1006.65 1007.42 1007.85 1008.12 1008.76 1009.26 1010.31 1012.10 1012.96 1013.47 1013.84 1014.28 1014.73 1015.22 1015.43 1015.38 1015.68 1015.67 1015.96 1016.14 1016.23 1016.30 1016.53 1016.60 1016.56 1016.53 1016.47 1016.53 1016.60 1016.75 1016.78 1016.70 1016.16 1015.90 1015.96 1015.64 1015.60 1016.15 1016.76 1015.92 1015.31 1016.09
1004.11 1004.13 1003.94 1003.77 1004.64 1005.06 1005.71 1006.34 1007.14 1008.06 1008.62 1009.51 1010.38 1011.40 1012.00 1012.68 1013.15 1013.59 1013.77 1014.34 1014.84 1015.30 1015.21 1015.40 1015.73 1016.00 1015.92 1016.02 1016.26 1016.34 1016.40 1016.41 1016.38 1016.46 1016.37 1016.53 1016.67 1016.44 1016.33 1016.06 1015.99 1016.00 1015.61 1015.67 1015.78 1016.16 1016.04 1015.78 1015.46
1004.78 1004.10 1003.72 1004.18 1004.39 1004.80 1005.42 1006.72 1006.85 1008.82 1009.06 1010.00 1010.79 1011.56 1012.10 1012.48 1012.77 1013.27 1013.56 1014.24 1014.56 1015.10 1015.15 1015.23 1015.72 1015.66 1015.83 1015.89 1016.05 1016.16 1016.26 1016.34 1016.46 1016.23 1016.26 1016.39 1016.51 1016.38 1016.13 1015.95 1015.99 1015.82 1015.62 1015.66 1015.60 1015.48 1015.76 1015.75 1015.20
1004.83 1004.81 1004.41 1004.90 1005.04 1005.22 1005.61 1007.21 1007.65 1008.42 1009.22 1010.24 1010.93 1011.49 1011.99 1012.37 1012.70 1012.92 1013.12 1013.87 1014.09 1014.65 1014.93 1015.25 1015.44 1015.28 1015.64 1015.92 1016.02 1016.16 1016.06 1016.26 1016.46 1016.31 1016.14 1016.18 1016.21 1016.19 1016.29 1016.19 1016.29 1015.82 1015.78 1015.75 1015.72 1015.56 1015.47 1015.58 1015.18
1005.22 1005.52 1005.62 1005.17 1005.80 1005.92 1005.98 1007.34 1008.04 1008.72 1009.12 1010.31 1010.94 1011.50 1011.75 1012.02 1012.42 1012.70 1012.95 1013.54 1013.91 1014.27 1014.81 1015.01 1015.22 1015.32 1015.60 1015.83 1015.86 1015.92 1015.90 1016.11 1016.34 1016.40 1016.28 1016.13 1016.10 1016.14 1016.19 1016.23 1016.13 1015.81 1015.72 1015.77 1015.78 1015.62 1015.67 1015.49 1015.25
1006.43 1006.33 1006.39 1006.77 1006.05 1006.32 1006.65 1007.64 1008.18 1008.81 1009.30 1009.98 1010.61 1011.11 1011.63 1011.96 1012.18 1012.31 1012.64 1013.25 1013.66 1013.98 1014.49 1014.88 1015.14 1015.36 1015.69 1015.69 1015.67 1015.89 1016.02 1016.03 1016.13 1016.34 1016.32 1016.25 1016.22 1016.16 1016.11 1016.08 1016.02 1015.86 1015.96 1016.06 1016.05 1016.03 1015.99 1015.98 1015.72
1007.45 1007.22 1006.64 1005.93 1005.75 1006.39 1007.06 1007.56 1007.92 1008.94 1009.52 1009.76 1010.02 1010.43 1011.20 1011.70 1011.85 1011.97 1012.45 1013.07 1013.50 1013.87 1014.31 1014.64 1015.09 1015.38 1015.79 1015.92 1015.86 1016.01 1016.43 1015.96 1015.93 1016.22 1016.23 1016.07 1015.98 1016.06 1016.12 1016.07 1015.98 1016.06 1016.24 1016.23 1016.28 1016.37 1016.40 1016.36 1016.32
1006.92 1006.91 1006.54 1006.02 1005.24 1005.92 1006.26 1007.22 1007.38 1007.94 1008.92 1009.13 1009.50 1009.79 1010.42 1011.01 1011.46 1011.90 1012.20 1012.85 1013.47 1013.86 1014.44 1014.65 1015.11 1015.48 1015.79 1016.11 1016.26 1016.34 1016.44 1016.33 1016.24 1016.29 1016.15 1016.07 1016.02 1016.05 1016.22 1016.26 1016.10 1016.14 1016.45 1016.58 1016.64 1016.53 1016.68 1016.68 1016.42
1006.63 1006.87 1006.60 1006.07 1005.81 1006.10 1006.03 1006.58 1006.56 1006.85 1007.56 1008.24 1009.08 1009.78 1010.10 1010.90 1011.22 1011.59 1011.91 1012.48 1013.10 1013.61 1014.14 1014.58 1014.97 1015.40 1015.59 1015.92 1016.10 1016.20 1016.26 1016.22 1016.24 1016.26 1016.24 1016.05 1015.98 1015.99 1016.18 1016.24 1016.44 1016.51 1016.54 1016.71 1016.82 1016.76 1017.08 1017.14 1016.99
1005.80 1006.18 1006.27 1006.05 1005.52 1005.36 1006.15 1005.92 1005.63 1005.78 1006.30 1007.15 1007.95 1008.52 1009.32 1010.03 1010.73 1011.22 1011.58 1012.14 1012.71 1013.18 1013.70 1014.20 1014.77 1015.16 1015.38 1015.72 1016.07 1016.26 1016.23 1016.27 1016.54 1016.60 1016.40 1016.08 1015.93 1015.96 1016.06 1016.20 1016.34 1016.65 1016.76 1017.06 1017.14 1017.17 1017.31 1017.72 1017.54
1004.96 1004.90 1005.20 1005.67 1005.61 1005.97 1005.25 1005.89 1005.28 1005.62 1006.02 1006.22 1006.90 1007.68 1008.34 1008.93 1009.81 1010.52 1011.05 1011.84 1012.22 1012.56 1013.18 1013.69 1014.38 1014.90 1015.13 1015.60 1015.98 1016.31 1016.48 1016.70 1016.57 1016.39 1016.20 1015.91 1015.82 1015.97 1015.98 1016.15 1016.30 1016.58 1016.72 1017.11 1017.35 1017.43 1017.56 1017.73 1018.15
1004.14 1003.79 1004.70 1005.12 1005.54 1005.58 1005.48 1006.08 1004.35 1005.24 1005.71 1005.12 1005.59 1006.62 1007.29 1007.85 1008.57 1009.44 1010.26 1010.94 1011.64 1012.14 1012.75 1013.30 1013.92 1014.53 1014.88 1015.37 1015.76 1016.20 1016.44 1016.46 1016.41 1016.32 1016.28 1016.04 1016.00 1016.05 1015.90 1016.08 1016.16 1016.64 1016.89 1017.19 1017.47 1017.76 1017.93 1018.02 1018.46
1003.30 1003.90 1004.49 1004.89 1005.67 1005.76 1005.12 1005.34 1003.90 1004.26 1002.97 1003.68 1004.97 1005.66 1006.29 1006.92 1007.45 1008.14 1009.25 1010.18 1010.90 1011.58 1012.27 1012.98 1013.56 1014.03 1014.47 1015.00 1015.43 1015.87 1016.22 1016.30 1016.37 1016.27 1016.39 1016.27 1016.25 1016.14 1015.89 1015.88 1016.10 1016.40 1016.84 1017.10 1017.45 1017.76 1017.96 1018.30 1018.57
1003.43 1004.54 1005.22 1006.08 1006.05 1005.02 1004.30 1004.54 1002.67 1001.60 1001.18 1002.07 1003.05 1003.86 1004.80 1005.50 1006.66 1007.26 1008.20 1009.34 1010.14 1010.84 1011.68 1012.34 1013.07 1013.63 1014.03 1014.52 1014.99 1015.36 1015.73 1015.90 1016.20 1016.18 1016.40 1016.50 1016.31 1015.92 1015.77 1015.93 1016.16 1016.46 1016.59 1016.92 1017.26 1017.70 1018.10 1018.35 1018.58
1002.91 1004.18 1005.34 1005.75 1005.79 1004.74 1003.96 1003.50 1001.73 1000.84 1000.60 1000.75 1001.59 1002.24 1003.54 1004.70 1005.29 1006.14 1006.95 1007.75 1009.01 1010.02 1010.95 1011.60 1012.37 1013.06 1013.54 1014.00 1014.48 1014.84 1015.18 1015.47 1015.67 1015.79 1016.00 1015.90 1015.92 1015.57 1015.48 1015.68 1015.79 1016.20 1016.52 1016.82 1017.11 1017.64 1018.06 1018.31 1018.61
1002.12 1003.14 1003.65 1005.18 1005.38 1005.53 1004.16 1003.05 1001.44 1000.79 1000.70 1001.26 1001.90 1002.73 1003.18 1003.72 1004.58 1005.10 1006.08 1007.08 1007.78 1008.97 1009.94 1010.78 1011.56 1012.36 1012.96 1013.37 1013.97 1014.39 1014.76 1015.15 1015.34 1015.40 1015.50 1015.46 1015.55 1015.49 1015.50 1015.47 1015.95 1016.23 1016.42 1016.73 1017.24 1017.67 1018.07 1018.34 1018.74
1001.50 1002.10 1003.51 1004.46 1005.18 1005.34 1004.32 1003.14 1001.77 1001.23 1001.18 1001.15 1001.72 1002.00 1002.31 1003.16 1003.90 1004.88 1005.37 1006.11 1006.93 1007.86 1008.99 1010.04 1010.76 1011.55 1012.24 1012.81 1013.28 1013.77 1014.20 1014.57 1014.88 1015.12 1015.11 1015.08 1015.11 1015.33 1015.52 1015.61 1015.86 1016.24 1016.47 1016.73 1017.08 1017.59 1018.04 1018.37 1018.71
1001.54 1001.60 1002.67 1003.57 1004.17 1004.28 1004.18 1002.68 1000.44 1000.01 999.90 999.77 1000.28 1000.90 1001.06 1001.41 1002.17 1003.57 1004.63 1005.35 1006.26 1007.01 1008.24 1009.23 1010.11 1010.97 1011.69 1012.22 1012.72 1013.20 1013.70 1014.07 1014.44 1014.69 1014.64 1014.74 1014.82 1014.99 1015.26 1015.44 1015.83 1016.08 1016.30 1016.70 1017.02 1017.46 1017.90 1018.27 1018.59
1001.15 1001.36 1002.06 1002.95 1003.39 1003.28 1002.62 1001.18 999.60 999.00 999.13 999.41 998.70 999.25 999.81 1000.09 1000.35 1001.75 1003.38 1004.89 1005.93 1006.43 1007.34 1008.34 1009.33 1010.21 1010.84 1011.50 1012.14 1012.66 1013.18 1013.66 1014.07 1014.21 1014.17 1014.28 1014.49 1014.78 1015.02 1015.27 1015.54 1015.88 1016.12 1016.54 1016.79 1017.24 1017.59 1018.06 1018.52
Thickness
5805 5801 5799 5786 5762 5760 5753 5760 5774 5773 5778 5795 5804 5793 5776 5778 5775 5754 5789 5789 5787 5784 5783 5783 5781 5780 5779 5776 5774 5773 5770 5767 5763 5760 5758 5756 5754 5752 5751 5748 5747 5747 5748 5746 5743 5740 5738 5737 5735
5804 5801 5790 5770 5756 5751 5751 5774 5766 5782 5790 5799 5801 5795 5784 5771 5790 5785 5783 5790 5789 5786 5782 5781 5780 5779 5778 5776 5774 5772 5770 5767 5763 5759 5756 5754 5752 5750 5749 5747 5745 5746 5746 5745 5742 5738 5736 5735 5734
5809 5805 5777 5758 5752 5756 5756 5778 5780 5790 5798 5803 5793 5801 5790 5775 5787 5787 5792 5791 5790 5786 5783 5780 5779 5779 5778 5776 5773 5772 5768 5763 5759 5756 5755 5754 5753 5750 5750 5750 5746 5743 5743 5743 5741 5735 5734 5733 5732
5807 5795 5774 5759 5754 5779 5781 5786 5793 5793 5805 5802 5796 5779 5792 5794 5792 5793 5791 5791 5789 5785 5782 5780 5779 5779 5778 5775 5773 5769 5767 5763 5760 5760 5761 5756 5751 5748 5750 5751 5749 5746 5744 5742 5738 5733 5732 5732 5728
5803 5784 5749 5753 5766 5782 5789 5802 5803 5797 5802 5799 5795 5775 5781 5795 5800 5796 5792 5792 5789 5785 5782 5781 5780 5779 5776 5775 5772 5768 5767 5766 5764 5762 5759 5756 5754 5750 5747 5747 5749 5750 5746 5742 5738 5733 5734 5735 5728
5778 5767 5744 5737 5767 5792 5793 5806 5807 5802 5807 5794 5785 5780 5779 5795 5795 5795 5795 5790 5789 5785 5782 5781 5780 5778 5775 5773 5770 5769 5769 5769 5769 5768 5766 5762 5759 5757 5755 5751 5750 5749 5746 5743 5740 5741 5742 5735 5732
5778 5756 5745 5747 5751 5780 5791 5806 5800 5802 5798 5790 5798 5772 5778 5789 5795 5795 5794 5791 5787 5785 5784 5782 5780 5777 5774 5773 5771 5771 5772 5772 5771 5770 5768 5764 5762 5761 5760 5756 5753 5751 5747 5746 5747 5749 5743 5742 5743
5791 5770 5765 5763 5746 5748 5782 5797 5804 5802 5796 5808 5803 5775 5772 5790 5799 5797 5794 5790 5785 5784 5784 5782 5778 5775 5775 5774 5771 5772 5773 5772 5770 5768 5770 5771 5767 5765 5761 5758 5756 5754 5751 5751 5751 5752 5751 5748 5751
5804 5769 5766 5782 5774 5757 5783 5790 5805 5817 5802 5806 5806 5801 5800 5800 5801 5795 5789 5785 5783 5781 5782 5782 5778 5776 5776 5774 5773 5773 5772 5771 5772 5774 5773 5771 5770 5766 5758 5758 5758 5759 5756 5757 5755 5754 5756 5748 5748
5787 5773 5795 5813 5804 5785 5793 5800 5809 5804 5799 5793 5800 5805 5800 5797 5795 5790 5786 5783 5781 5778 5781 5783 5780 5778 5778 5776 5774 5772 5771 5774 5774 5775 5774 5770 5769 5765 5762 5760 5762 5762 5760 5761 5759 5756 5755 5747 5743
5809 5790 5821 5826 5822 5815 5809 5811 5821 5805 5795 5803 5797 5796 5794 5795 5792 5789 5788 5789 5786 5784 5786 5783 5783 5781 5780 5780 5775 5772 5771 5772 5776 5775 5775 5774 5772 5766 5764 5766 5767 5765 5765 5764 5759 5754 5764 5759 5758
5810 5829 5827 5830 5830 5826 5819 5823 5813 5812 5813 5820 5817 5813 5799 5793 5791 5790 5789 5789 5786 5786 5787 5787 5785 5782 5781 5781 5779 5776 5774 5774 5774 5773 5772 5770 5769 5767 5767 5771 5772 5768 5769 5768 5762 5756 5766 5772 5765
5821 5829 5835 5837 5831 5831 5829 5821 5818 5815 5818 5817 5810 5803 5798 5794 5793 5795 5796 5794 5791 5786 5789 5790 5788 5785 5784 5783 5782 5780 5781 5779 5776 5773 5772 5772 5770 5771 5773 5775 5775 5771 5772 5771 5768 5765 5764 5767 5771
5821 5828 5836 5834 5832 5833 5823 5817 5824 5808 5816 5810 5805 5798 5796 5795 5795 5795 5796 5791 5792 5790 5791 5794 5789 5789 5787 5788 5786 5785 5784 5781 5778 5777 5777 5776 5775 5776 5777 5779 5778 5777 5777 5775 5774 5774 5770 5769 5774
5822 5812 5825 5823 5828 5824 5832 5806 5807 5817 5814 5805 5802 5799 5797 5794 5797 5796 5799 5793 5796 5794 5795 5795 5794 5794 5791 5791 5789 5787 5786 5783 5781 5780 5780 5779 5778 5779 5778 5779 5781 5779 5777 5777 5776 5775 5774 5773 5776
5808 5804 5783 5815 5817 5820 5819 5783 5810 5818 5812 5800 5800 5798 5796 5796 5796 5799 5801 5798 5799 5797 5796 5798 5799 5797 5794 5793 5790 5789 5789 5786 5784 5782 5782 5783 5782 5782 5782 5782 5783 5782 5782 5780 5780 5780 5777 5777 5778
5785 5777 5781 5783 5815 5814 5808 5789 5807 5814 5810 5800 5799 5799 5794 5793 5796 5802 5803 5802 5802 5802 5800 5799 5799 5797 5795 5795 5793 5791 5791 5790 5787 5784 5784 5784 5784 5785 5785 5785 5785 5785 5782 5781 5781 5779 5778 5776 5776
5762 5770 5781 5792 5805 5810 5798 5792 5804 5803 5801 5801 5803 5802 5797 5791 5795 5801 5803 5803 5804 5803 5803 5802 5800 5798 5797 5796 5795 5793 5790 5793 5792 5788 5787 5788 5789 5788 5788 5788 5789 5786 5784 5782 5781 5780 5779 5777 5776
5782 5779 5781 5796 5821 5805 5803 5796 5804 5805 5800 5802 5803 5803 5801 5796 5798 5801 5804 5803 5802 5803 5801 5801 5799 5798 5797 5795 5792 5790 5789 5791 5792 5791 5790 5791 5791 5791 5789 5789 5791 5789 5785 5783 5782 5780 5777 5776 5777
5779 5772 5775 5792 5808 5804 5801 5799 5813 5814 5808 5805 5801 5798 5798 5794 5794 5798 5802 5803 5803 5803 5803 5802 5802 5800 5800 5798 5796 5795 5794 5795 5795 5794 5792 5792 5793 5793 5792 5792 5790 5789 5787 5786 5784 5783 5777 5774 5773
5777 5767 5772 5782 5799 5809 5793 5797 5808 5820 5822 5816 5813 5811 5807 5799 5794 5795 5800 5802 5805 5806 5805 5805 5804 5803 5803 5801 5799 5797 5797 5797 5795 5794 5794 5796 5797 5797 5796 5794 5792 5790 5788 5783 5783 5782 5779 5770 5770
5759 5796 5799 5790 5780 5759 5809 5765 5802 5808 5812 5819 5816 5813 5811 5808 5805 5801 5802 5801 5805 5810 5811 5810 5808 5806 5806 5804 5800 5797 5793 5790 5796 5798 5798 5801 5801 5799 5797 5796 5795 5792 5789 5786 5783 5781 5777 5773 5765
5781 5810 5801 5797 5782 5777 5787 5765 5794 5801 5800 5818 5822 5817 5818 5818 5813 5808 5806 5807 5807 5812 5813 5813 5812 5810 5809 5806 5803 5799 5796 5798 5800 5800 5800 5801 5801 5800 5801 5799 5797 5793 5789 5786 5782 5778 5775 5771 5764
5812 5798 5793 5793 5776 5743 5784 5780 5802 5795 5821 5828 5826 5824 5824 5824 5822 5819 5815 5813 5811 5814 5814 5814 5813 5812 5812 5809 5806 5803 5800 5800 5800 5800 5799 5800 5802 5803 5804 5803 5800 5796 5792 5787 5782 5778 5775 5768 5762
5786 5765 5742 5725 5726 5746 5795 5775 5809 5831 5847 5843 5834 5835 5834 5835 5827 5825 5819 5816 5815 5815 5816 5817 5815 5814 5815 5813 5810 5808 5806 5804 5803 5803 5799 5800 5803 5806 5807 5805 5802 5798 5794 5789 5783 5779 5773 5769 5762
5770 5758 5722 5714 5720 5765 5797 5769 5801 5839 5855 5859 5853 5851 5844 5837 5836 5835 5831 5828 5825 5821 5820 5821 5819 5817 5817 5816 5814 5813 5812 5809 5808 5807 5806 5808 5807 5811 5812 5809 5806 5800 5794 5790 5785 5780 5773 5768 5762
5780 5751 5786 5754 5759 5746 5772 5797 5827 5837 5843 5843 5840 5839 5835 5840 5837 5839 5840 5834 5834 5829 5827 5826 5824 5822 5821 5820 5818 5816 5815 5813 5812 5811 5812 5813 5812 5814 5812 5810 5805 5800 5796 5790 5785 5779 5773 5767 5760
5779 5795 5758 5739 5728 5727 5751 5771 5786 5812 5818 5832 5828 5830 5835 5841 5839 5837 5842 5842 5840 5839 5835 5831 5830 5826 5825 5824 5823 5821 5820 5818 5816 5814 5814 5816 5817 5815 5812 5810 5807 5801 5798 5792 5787 5779 5773 5766 5760
5764 5767 5769 5763 5750 5737 5726 5751 5816 5831 5837 5841 5843 5845 5850 5854 5851 5846 5842 5845 5843 5844 5841 5836 5833 5829 5827 5827 5826 5825 5823 5821 5819 5817 5818 5819 5820 5818 5814 5811 5806 5803 5799 5794 5787 5780 5772 5766 5760
5773 5771 5762 5753 5744 5752 5757 5769 5835 5847 5853 5852 5865 5862 5864 5867 5867 5862 5850 5840 5840 5844 5845 5842 5837 5834 5833 5831 5829 5827 5826 5823 5821 5820 5822 5822 5821 5819 5815 5812 5807 5804 5800 5794 5789 5781 5775 5766 5759